Home   Weather   Tamsweg   Past weeks

Flag for Austria Past Weather in Tamsweg, Salzburg, Austria — Yesterday and Last 2 Weeks

Now
28 °F

Chilly.


Feels Like: 28 °F
Forecast: 17 / 44 °F
Wind: No wind

Location: Aigen Im Ennstal

Current Time: Dec 8, 2016 at 7:32:58 pm

Latest Report: Dec 8, 2016 at 6:00 pm


Visibility: N/A

Pressure: 30.65 "Hg (26.95 "Hg at 1021m altitude)

Humidity: 76%

Dew Point: 22 °F

Location of TamswegLocation

Past Weather in Tamsweg — Graph

°F

Tamsweg Temperature Yesterday

Maximum temperature yesterday: 38 °F (at 3:00 pm)
Minimum temperature yesterday: 18 °F (at 5:00 am)
Average temperature yesterday: 26 °F

High & Low Weather Summary for the Past Weeks

 TemperatureHumidityPressure
High49 °F (Nov 26, 2:00 pm)99% (Nov 25, 1:00 am)30.81 "Hg (Nov 25, 1:00 am)
Low15 °F (Nov 30, 7:00 am)28% (Dec 1, 9:00 pm)29.94 "Hg (Nov 27, 2:00 pm)
Average32 °F77%30.35 "Hg
* Reported Nov 23 6:00 pm — Dec 8 6:00 pm, Tamsweg, Weather by CustomWeather, © 2016

Note: Actual official high and low records may vary slightly from our data, if they occured in-between our weather recording intervals... More about our weather records

Advertising

Tamsweg Weather History for the Previous 24 Hours

Scroll right to see more
 ConditionsComfort  
Time TempWeatherWind HumidityBarometerVisibility
6:00 pm
Thu, Dec 8
28 °FChilly.No wind76%30.65 "HgN/A
5:00 pm29 °FChilly.No wind77%30.64 "HgN/A
4:00 pm36 °FOvercast.2 mph60%30.60 "Hg31 mi
3:00 pm40 °FChilly.1 mph51%30.58 "HgN/A
2:00 pm39 °FChilly.1 mph55%30.60 "HgN/A
1:00 pm36 °FChilly.1 mph60%30.64 "HgN/A
12:00 pm33 °FChilly.No wind64%30.68 "HgN/A
11:00 am29 °FChilly.1 mph78%30.72 "HgN/A
10:00 am24 °FPartly sunny.N/A85%30.76 "Hg25 mi
9:00 am21 °FCold.1 mph87%30.79 "HgN/A
8:00 am19 °FCold.No wind88%30.80 "HgN/A
7:00 am20 °FPassing clouds.No wind87%30.78 "Hg16 mi
6:00 am18 °FCold.No wind87%30.81 "HgN/A
5:00 am17 °FCold.1 mph86%30.81 "HgN/A
4:00 am19 °FClear.N/A89%30.79 "Hg16 mi
3:00 am19 °FCold.No wind90%30.81 "HgN/A
1:00 am21 °FClear.1 mph90%30.78 "Hg16 mi
12:00 am22 °FCold.No wind88%30.79 "HgN/A
11:00 pm
Wed, Dec 7
24 °FCold.No wind85%30.77 "HgN/A
10:00 pm23 °FPassing clouds.N/A84%30.76 "Hg16 mi
9:00 pm25 °FCold.1 mph84%30.76 "HgN/A
8:00 pm26 °FChilly.1 mph81%30.73 "HgN/A
7:00 pm28 °FClear.N/A78%30.71 "Hg16 mi
Weather by CustomWeather, © 2016

See weather overviewHow to use our weather pages